GSAT-12

Last updated on Sun May 28 2023 00:02:46 GMT+0000 (Coordinated Universal Time)

1 37746U 11034A 23147.08284392 .00000069 00000+0 00000+0 0 9992 2 37746 2.3823 91.1471 0002096 82.9390 153.0981 0.98858963 43749
UTC large
Height (km)
Speed (km/s)
/
Latitude / Longitude
Inclination (degrees)
Orbital Period (minutes)
Azimuth
Elevation
Range (km)
Doppler Factor

Next 0 passes for location: London (51.5072 / 0.1276)

Sorry there are no passes over London.